| time (UTC) | temp C | wind direction | speed KPH | gust KPH | rain 1hr cm | rain 24hr cm | rain mn cm | humidity % | barometer mb |
| 20260505093021 | 12 | 91 | 8.0 | 16.1 | 0.00 | 0.00 | 0.00 | 68 | 1015.7 |
| 20260505092024 | 13 | 81 | 9.7 | 17.7 | 0.00 | 0.00 | 0.00 | 66 | 1015.6 |
| 20260505091021 | 13 | 101 | 9.7 | 16.1 | 0.00 | 0.00 | 0.00 | 66 | 1015.7 |
| 20260505090022 | 13 | 113 | 8.0 | 16.1 | 0.00 | 0.00 | 0.00 | 67 | 1015.8 |
| 20260505085021 | 13 | 103 | 8.0 | 19.3 | 0.00 | 0.00 | 0.00 | 67 | 1015.7 |
| 20260505084022 | 13 | 93 | 9.7 | 19.3 | 0.00 | 0.00 | 0.00 | 68 | 1015.7 |
| 20260505083021 | 13 | 81 | 11.3 | 22.5 | 0.00 | 0.00 | 0.00 | 67 | 1015.7 |
| 20260505082022 | 13 | 74 | 9.7 | 19.3 | 0.00 | 0.00 | 0.00 | 67 | 1015.6 |
| 20260505081021 | 14 | 94 | 9.7 | 16.1 | 0.00 | 0.00 | 0.00 | 66 | 1015.6 |
| 20260505080021 | 14 | 73 | 8.0 | 16.1 | 0.00 | 0.00 | 0.00 | 64 | 1015.4 |
| 20260505075022 | 15 | 83 | 6.4 | 11.3 | 0.00 | 0.00 | 0.00 | 61 | 1015.1 |
| 20260505074021 | 15 | 76 | 4.8 | 14.5 | 0.00 | 0.00 | 0.00 | 60 | 1015.1 |
| 20260505073022 | 15 | 52 | 4.8 | 17.7 | 0.00 | 0.00 | 0.00 | 63 | 1015.1 |
| 20260505072022 | 15 | 81 | 6.4 | 19.3 | 0.00 | 0.00 | 0.00 | 64 | 1015.1 |
| 20260505071024 | 15 | 79 | 6.4 | 14.5 | 0.00 | 0.00 | 0.00 | 63 | 1015.0 |
| 20260505070022 | 15 | 92 | 8.0 | 17.7 | 0.00 | 0.00 | 0.00 | 63 | 1015.0 |
| 20260505065024 | 15 | 86 | 9.7 | 17.7 | 0.00 | 0.00 | 0.00 | 62 | 1014.8 |
| 20260505064024 | 16 | 83 | 8.0 | 20.9 | 0.00 | 0.00 | 0.00 | 60 | 1014.9 |
| 20260505063022 | 17 | 70 | 6.4 | 14.5 | 0.00 | 0.00 | 0.00 | 57 | 1014.9 |
| 20260505062022 | 16 | 62 | 8.0 | 16.1 | 0.00 | 0.00 | 0.00 | 58 | 1014.9 |
| 20260505061021 | 16 | 103 | 6.4 | 14.5 | 0.00 | 0.00 | 0.00 | 59 | 1014.9 |
| 20260505060022 | 16 | 81 | 6.4 | 20.9 | 0.00 | 0.00 | 0.00 | 61 | 1015.0 |
| 20260505055023 | 16 | 81 | 8.0 | 16.1 | 0.00 | 0.00 | 0.00 | 64 | 1015.0 |
| 20260505054022 | 16 | 102 | 8.0 | 16.1 | 0.00 | 0.00 | 0.00 | 65 | 1015.0 |
| 20260505053025 | 17 | 111 | 8.0 | 16.1 | 0.00 | 0.00 | 0.00 | 60 | 1015.0 |
| 20260505052022 | 17 | 73 | 4.8 | 17.7 | 0.00 | 0.00 | 0.00 | 60 | 1015.0 |
| 20260505051021 | 17 | 76 | 6.4 | 17.7 | 0.00 | 0.00 | 0.00 | 59 | 1014.9 |
| 20260505041021 | 17 | 97 | 9.7 | 17.7 | 0.00 | 0.00 | 0.00 | 61 | 1015.0 |
| 20260505040022 | 17 | 62 | 6.4 | 16.1 | 0.00 | 0.00 | 0.00 | 61 | 1015.0 |
| 20260505035021 | 17 | 69 | 9.7 | 20.9 | 0.00 | 0.00 | 0.05 | 60 | 1014.9 |
| 20260505034022 | 17 | 85 | 6.4 | 25.7 | 0.00 | 0.00 | 0.05 | 60 | 1015.0 |
| 20260505033022 | 17 | 61 | 8.0 | 17.7 | 0.00 | 0.00 | 0.05 | 60 | 1015.1 |
| 20260505032022 | 18 | 103 | 9.7 | 16.1 | 0.00 | 0.00 | 0.05 | 59 | 1015.1 |
| 20260505031024 | 18 | 69 | 8.0 | 19.3 | 0.00 | 0.00 | 0.05 | 59 | 1015.1 |
| 20260505030022 | 18 | 110 | 8.0 | 16.1 | 0.00 | 0.00 | 0.05 | 59 | 1015.1 |
| 20260505025026 | 18 | 98 | 8.0 | 20.9 | 0.00 | 0.00 | 0.05 | 57 | 1015.1 |
| 20260505024023 | 18 | 103 | 6.4 | 19.3 | 0.00 | 0.00 | 0.05 | 57 | 1015.2 |
| 20260505023022 | 18 | 99 | 8.0 | 17.7 | 0.00 | 0.00 | 0.05 | 58 | 1015.3 |
| 20260505022021 | 18 | 108 | 6.4 | 12.9 | 0.00 | 0.00 | 0.05 | 58 | 1015.3 |
| 20260505021022 | 18 | 87 | 6.4 | 17.7 | 0.00 | 0.00 | 0.05 | 59 | 1015.4 |
| 20260505020021 | 18 | 99 | 9.7 | 20.9 | 0.00 | 0.00 | 0.05 | 58 | 1015.3 |
| 20260505015024 | 18 | 102 | 4.8 | 11.3 | 0.00 | 0.00 | 0.05 | 58 | 1015.3 |
| 20260505014022 | 18 | 95 | 6.4 | 14.5 | 0.00 | 0.00 | 0.05 | 59 | 1015.3 |
| 20260505013021 | 18 | 121 | 4.8 | 12.9 | 0.00 | 0.00 | 0.05 | 56 | 1015.2 |
| 20260505012024 | 18 | 95 | 3.2 | 11.3 | 0.00 | 0.00 | 0.05 | 55 | 1015.2 |
| 20260505011022 | 18 | 47 | 4.8 | 11.3 | 0.00 | 0.00 | 0.05 | 56 | 1015.2 |
| 20260505010021 | 18 | 72 | 1.6 | 12.9 | 0.00 | 0.00 | 0.05 | 56 | 1015.0 |
| 20260505005022 | 18 | 53 | 3.2 | 11.3 | 0.00 | 0.00 | 0.05 | 56 | 1014.8 |
| 20260505004022 | 18 | 69 | 3.2 | 8.0 | 0.00 | 0.00 | 0.05 | 57 | 1014.8 |
| 20260505003022 | 18 | 71 | 3.2 | 11.3 | 0.00 | 0.00 | 0.05 | 58 | 1014.6 |
| 20260505002022 | 18 | 54 | 4.8 | 12.9 | 0.00 | 0.00 | 0.05 | 57 | 1014.6 |
| 20260505001025 | 18 | 60 | 4.8 | 16.1 | 0.00 | 0.00 | 0.05 | 58 | 1014.5 |
| 20260505000024 | 18 | 150 | 6.4 | 17.7 | 0.00 | 0.00 | 0.05 | 61 | 1014.4 |
| 20260504235021 | 17 | 105 | 4.8 | 11.3 | 0.00 | 0.00 | 0.05 | 63 | 1014.3 |
| 20260504234024 | 17 | 131 | 4.8 | 11.3 | 0.00 | 0.00 | 0.05 | 67 | 1014.4 |
| 20260504233022 | 17 | 62 | 8.0 | 14.5 | 0.00 | 0.00 | 0.05 | 69 | 1014.1 |
| 20260504232022 | 16 | 90 | 6.4 | 11.3 | 0.00 | 0.00 | 0.05 | 75 | 1014.3 |
| 20260504231021 | 16 | 73 | 6.4 | 12.9 | 0.00 | 0.00 | 0.05 | 79 | 1014.4 |
| 20260504230023 | 16 | 104 | 4.8 | 11.3 | 0.00 | 0.00 | 0.05 | 79 | 1014.9 |
| 20260504225022 | 20 | 353 | 1.6 | 11.3 | 0.00 | 0.00 | 0.00 | 53 | 1015.1 |
| 20260504224022 | 20 | 143 | 4.8 | 11.3 | 0.00 | 0.00 | 0.00 | 52 | 1014.3 |
| 20260504223021 | 20 | 113 | 3.2 | 16.1 | 0.00 | 0.00 | 0.00 | 52 | 1014.2 |
| 20260504222022 | 20 | 119 | 6.4 | 12.9 | 0.00 | 0.00 | 0.00 | 52 | 1014.3 |
| 20260504221022 | 20 | 98 | 4.8 | 16.1 | 0.00 | 0.00 | 0.00 | 52 | 1014.1 |
| 20260504220021 | 21 | 93 | 3.2 | 12.9 | 0.00 | 0.00 | 0.00 | 51 | 1014.2 |
| 20260504215022 | 21 | 70 | 6.4 | 12.9 | 0.00 | 0.00 | 0.00 | 48 | 1014.2 |
| 20260504214021 | 22 | 82 | 4.8 | 9.7 | 0.00 | 0.00 | 0.00 | 48 | 1014.2 |
| 20260504213028 | 22 | 146 | 6.4 | 16.1 | 0.00 | 0.00 | 0.00 | 49 | 1014.3 |
| 20260504212021 | 22 | 111 | 4.8 | 16.1 | 0.00 | 0.00 | 0.00 | 46 | 1014.3 |
| 20260504211022 | 22 | 77 | 6.4 | 16.1 | 0.00 | 0.00 | 0.00 | 46 | 1014.3 |
| 20260504210023 | 22 | 347 | 3.2 | 12.9 | 0.00 | 0.00 | 0.00 | 46 | 1014.3 |
| 20260504205024 | 22 | 343 | 4.8 | 8.0 | 0.00 | 0.00 | 0.00 | 49 | 1014.3 |
| 20260504204021 | 22 | 272 | 3.2 | 16.1 | 0.00 | 0.00 | 0.00 | 46 | 1014.3 |
| 20260504203021 | 22 | 69 | 3.2 | 14.5 | 0.00 | 0.00 | 0.00 | 46 | 1014.2 |
| 20260504202022 | 21 | 88 | 1.6 | 8.0 | 0.00 | 0.00 | 0.00 | 48 | 1014.4 |
| 20260504201021 | 22 | 285 | 3.2 | 14.5 | 0.00 | 0.00 | 0.00 | 51 | 1014.7 |
| 20260504200022 | 21 | 128 | 3.2 | 11.3 | 0.00 | 0.00 | 0.00 | 49 | 1014.7 |
| 20260504195021 | 20 | 116 | 4.8 | 12.9 | 0.00 | 0.00 | 0.00 | 49 | 1014.9 |
| 20260504194022 | 20 | 160 | 4.8 | 16.1 | 0.00 | 0.00 | 0.00 | 49 | 1014.9 |
| 20260504193023 | 21 | 307 | 4.8 | 11.3 | 0.00 | 0.00 | 0.00 | 47 | 1015.1 |
| 20260504192022 | 21 | 270 | 4.8 | 11.3 | 0.00 | 0.00 | 0.00 | 46 | 1015.0 |
| 20260504191021 | 21 | 244 | 1.6 | 16.1 | 0.00 | 0.00 | 0.00 | 46 | 1015.2 |
| 20260504190021 | 22 | 341 | 4.8 | 14.5 | 0.00 | 0.00 | 0.00 | 47 | 1015.3 |
| 20260504185024 | 21 | 79 | 6.4 | 17.7 | 0.00 | 0.00 | 0.00 | 47 | 1015.5 |
| 20260504184021 | 22 | 43 | 1.6 | 16.1 | 0.00 | 0.00 | 0.00 | 45 | 1015.6 |
| 20260504183022 | 22 | 202 | 3.2 | 12.9 | 0.00 | 0.00 | 0.00 | 45 | 1015.6 |
| 20260504182022 | 22 | 270 | 1.6 | 11.3 | 0.00 | 0.00 | 0.00 | 46 | 1015.8 |
| 20260504181021 | 21 | 109 | 4.8 | 12.9 | 0.00 | 0.00 | 0.00 | 49 | 1015.9 |
| 20260504180022 | 20 | 253 | 3.2 | 11.3 | 0.00 | 0.00 | 0.00 | 51 | 1016.1 |
| 20260504175021 | 20 | 265 | 3.2 | 11.3 | 0.00 | 0.00 | 0.00 | 53 | 1016.3 |
| 20260504174022 | 20 | 255 | 1.6 | 12.9 | 0.00 | 0.00 | 0.00 | 56 | 1016.3 |
| 20260504173022 | 19 | 324 | 3.2 | 11.3 | 0.00 | 0.00 | 0.00 | 51 | 1016.3 |
| 20260504172021 | 19 | 81 | 3.2 | 9.7 | 0.00 | 0.00 | 0.00 | 49 | 1016.4 |
| 20260504171022 | 20 | 101 | 3.2 | 11.3 | 0.00 | 0.00 | 0.00 | 49 | 1016.5 |
| 20260504151026 | 18 | 305 | 6.4 | 19.3 | 0.00 | 0.00 | 0.00 | 43 | 1017.6 |
| 20260504141022 | 16 | 84 | 9.7 | 16.1 | 0.00 | 0.00 | 0.00 | 47 | 1017.3 |